FW9558 Weather Reports


time (UTC)temp
F
wind
direction
speed
knots
gust
knots
rain 1hr
in
rain 24hr
in
rain mn
in
humidity
%
barometer
mb
20260507181542 64 0 0.0 3.5 0.00 0.00 0.00 67 1012.2
20260507180040 64 70 0.0 2.6 0.00 0.00 0.00 66 1012.4
20260507174535 64 0 0.0 3.5 0.00 0.00 0.00 65 1012.4
20260507173045 65 74 0.9 4.3 0.00 0.00 0.00 63 1012.3
20260507171548 65 63 0.9 2.6 0.00 0.00 0.00 62 1012.3
20260507170037 66 121 1.7 5.2 0.00 0.00 0.00 61 1012.2
20260507164544 67 0 0.9 5.2 0.00 0.00 0.00 61 1012.3
20260507163043 66 94 0.9 4.3 0.00 0.00 0.00 61 1012.3
20260507161543 65 112 1.7 3.5 0.00 0.00 0.00 61 1012.5
20260507160047 65 0 0.0 2.6 0.00 0.00 0.00 64 1012.5
20260507154538 65 71 0.9 3.5 0.00 0.00 0.00 61 1012.4
20260507153043 65 123 0.9 3.5 0.00 0.00 0.00 63 1012.6
20260507151535 66 88 0.9 3.5 0.00 0.00 0.00 60 1012.7
20260507150036 65 114 0.9 5.2 0.00 0.00 0.00 61 1012.9
20260507144539 66 99 1.7 3.5 0.00 0.00 0.00 61 1013.0
20260507143042 67 103 1.7 7.0 0.00 0.00 0.00 56 1013.2
20260507141543 67 113 1.7 5.2 0.00 0.00 0.00 60 1013.3
20260507140038 67 82 1.7 6.1 0.00 0.00 0.00 60 1013.3
20260507134536 66 115 2.6 6.1 0.00 0.00 0.00 61 1013.6
20260507133040 66 91 0.9 5.2 0.00 0.00 0.00 61 1013.6
20260507131535 66 79 1.7 6.1 0.00 0.00 0.00 60 1013.7
20260507130050 65 109 1.7 5.2 0.00 0.00 0.00 60 1013.9
20260507124555 64 41 0.9 7.0 0.00 0.00 0.00 63 1013.9
20260507123037 64 144 1.7 5.2 0.00 0.00 0.00 61 1013.9
20260507121540 64 106 1.7 7.0 0.00 0.00 0.00 62 1014.1
20260507120040 64 355 2.6 7.8 0.00 0.00 0.00 63 1014.1
20260507114556 64 140 1.7 5.2 0.00 0.00 0.00 61 1014.2
20260507113038 63 67 1.7 3.5 0.00 0.00 0.00 65 1014.2
20260507111538 63 108 0.9 5.2 0.00 0.00 0.00 67 1014.7
20260507110043 62 112 0.0 5.2 0.00 0.00 0.00 66 1014.7
20260507104549 63 108 0.9 5.2 0.00 0.00 0.00 65 1014.8
20260507103040 63 132 0.9 3.5 0.00 0.00 0.00 66 1015.0
20260507101538 62 0 0.9 4.3 0.00 0.00 0.00 69 1014.9
20260507100042 62 80 0.9 4.3 0.00 0.00 0.00 67 1015.1
20260507094537 62 94 1.7 6.1 0.00 0.00 0.00 69 1014.9
20260507093040 61 106 2.6 7.0 0.00 0.00 0.00 72 1015.0
20260507091544 61 105 0.9 4.3 0.00 0.00 0.00 75 1015.1
20260507090039 59 80 0.9 4.3 0.00 0.00 0.00 77 1015.1
20260507084540 59 69 0.9 3.5 0.00 0.00 0.00 79 1015.1
20260507083036 58 0 0.9 3.5 0.00 0.00 0.00 81 1015.1
20260507081543 57 0 0.0 2.6 0.00 0.00 0.00 83 1015.0
20260507080041 56 0 0.0 0.0 0.00 0.00 0.00 85 1015.0
20260507074532 56 0 0.9 3.5 0.00 0.00 0.00 86 1014.9
20260507073042 55 63 0.0 3.5 0.00 0.00 0.00 89 1014.8
20260507071537 54 0 0.0 2.6 0.00 0.00 0.00 91 1014.8
20260507070037 53 0 0.0 2.6 0.00 0.00 0.00 93 1014.7
20260507064540 52 0 0.0 0.0 0.00 0.00 0.00 93 1014.6
20260507063052 52 0 0.0 0.0 0.00 0.00 0.00 94 1014.6
20260507061546 51 0 0.0 0.9 0.00 0.00 0.00 94 1014.6
20260507060043 50 0 0.0 0.0 0.00 0.00 0.00 94 1014.4
20260507054541 50 0 0.0 0.0 0.00 0.00 0.00 94 1014.3
20260507053040 49 0 0.0 0.0 0.00 0.00 0.00 94 1014.2
20260507051536 49 0 0.0 0.0 0.00 0.00 0.00 93 1014.2
20260507050039 49 0 0.0 0.0 0.00 0.00 0.00 93 1014.1
20260507044542 50 0 0.0 0.0 0.00 0.00 0.00 93 1014.1
20260507043038 50 0 0.0 0.0 0.00 0.00 0.00 93 1014.1
20260507041537 50 0 0.0 0.0 0.00 0.00 0.00 93 1014.0
20260507040041 51 0 0.0 0.0 0.00 0.00 0.00 93 1014.1
20260507034540 51 0 0.0 0.0 0.00 0.00 0.00 93 1014.1
20260507033039 51 0 0.0 0.0 0.00 0.00 0.00 92 1014.0
20260507031537 51 0 0.0 0.0 0.00 0.00 0.00 92 1014.0
20260507030036 51 0 0.0 0.0 0.00 0.00 0.00 92 1014.0
20260507024537 51 0 0.0 0.0 0.00 0.00 0.00 92 1014.0
20260507023035 51 0 0.0 0.0 0.00 0.00 0.00 91 1014.0
20260507021539 51 0 0.0 0.0 0.00 0.00 0.00 91 1013.9
20260507020043 51 0 0.0 0.0 0.00 0.00 0.00 91 1014.0
20260507014635 52 0 0.0 0.0 0.00 0.00 0.00 91 1014.0
20260507014543 52 0 0.0 0.0 0.00 0.00 0.00 91 1014.0
20260507013047 52 0 0.0 0.0 0.00 0.00 0.00 90 1013.9
20260507011536 52 0 0.0 0.0 0.00 0.00 0.00 90 1013.9
20260507010053 52 0 0.0 0.0 0.00 0.00 0.00 90 1013.9
20260507004539 53 0 0.0 0.0 0.00 0.00 0.00 90 1014.0
20260507003039 53 0 0.0 0.0 0.00 0.00 0.00 89 1014.2
20260507001535 53 0 0.0 0.0 0.00 0.00 0.00 89 1014.2
20260507000041 53 0 0.0 0.0 0.00 0.00 0.00 89 1014.2
20260506234541 53 0 0.0 0.0 0.00 0.00 0.00 88 1014.2
20260506233054 53 0 0.0 0.0 0.00 0.00 0.00 88 1014.1
20260506231541 54 0 0.0 0.0 0.00 0.00 0.00 87 1014.2
20260506230037 54 0 0.0 0.0 0.00 0.00 0.00 87 1014.2
20260506224536 54 0 0.0 0.0 0.00 0.00 0.00 86 1014.2
20260506223040 54 0 0.0 0.0 0.00 0.00 0.00 86 1014.1
20260506221540 54 0 0.0 0.0 0.00 0.00 0.00 85 1014.2
20260506220041 54 0 0.0 0.0 0.00 0.00 0.00 85 1014.1
20260506214538 55 0 0.0 0.0 0.00 0.00 0.00 85 1014.2
20260506213037 55 0 0.0 0.0 0.00 0.00 0.00 84 1014.1
20260506211536 55 0 0.0 0.0 0.00 0.00 0.00 84 1014.0
20260506210041 55 0 0.0 0.0 0.00 0.00 0.00 84 1014.0
20260506204539 55 0 0.0 0.0 0.00 0.00 0.00 83 1013.8
20260506203035 55 0 0.0 0.0 0.00 0.00 0.00 82 1013.8
20260506201537 55 0 0.0 0.0 0.00 0.00 0.00 82 1013.6
20260506200041 55 0 0.0 0.0 0.00 0.00 0.00 82 1013.5
20260506194546 55 0 0.0 0.0 0.00 0.00 0.00 82 1013.2
20260506193038 55 0 0.0 0.9 0.00 0.00 0.00 82 1013.1
20260506191635 56 0 0.0 2.6 0.00 0.00 0.00 82 1012.8
20260506191539 56 0 0.0 2.6 0.00 0.00 0.00 82 1012.8
20260506190542 56 22 0.0 2.6 0.00 0.00 0.00 82 1012.7
20260506184536 56 0 0.0 2.6 0.00 0.00 0.00 81 1012.6
20260506183041 56 5 0.9 3.5 0.00 0.00 0.00 80 1012.5